| time (UTC) | temp C | wind direction | speed KPH | gust KPH | rain 1hr cm | rain 24hr cm | rain mn cm | humidity % | barometer mb |
| 20260505034625 | 17 | 155 | 1.6 | 4.8 | 0.00 | 0.00 | 0.00 | 41 | 1004.6 |
| 20260505033612 | 17 | 153 | 1.6 | 3.2 | 0.00 | 0.00 | 0.00 | 43 | 1004.6 |
| 20260505032619 | 17 | 153 | 0.0 | 8.0 | 0.00 | 0.00 | 0.00 | 39 | 1004.5 |
| 20260505031613 | 17 | 157 | 0.0 | 3.2 | 0.00 | 0.00 | 0.00 | 39 | 1004.4 |
| 20260505030623 | 17 | 157 | 1.6 | 8.0 | 0.00 | 0.00 | 0.00 | 40 | 1004.1 |
| 20260505025623 | 17 | 157 | 3.2 | 4.8 | 0.00 | 0.00 | 0.00 | 39 | 1004.0 |
| 20260505024613 | 18 | 156 | 1.6 | 3.2 | 0.00 | 0.00 | 0.00 | 37 | 1003.8 |
| 20260505023619 | 18 | 156 | 3.2 | 4.8 | 0.00 | 0.00 | 0.00 | 38 | 1003.7 |
| 20260505022627 | 19 | 156 | 1.6 | 4.8 | 0.00 | 0.00 | 0.00 | 36 | 1003.7 |
| 20260505021615 | 20 | 155 | 1.6 | 4.8 | 0.00 | 0.00 | 0.00 | 34 | 1003.6 |
| 20260505020627 | 20 | 155 | 3.2 | 4.8 | 0.00 | 0.00 | 0.00 | 33 | 1003.5 |
| 20260505015622 | 20 | 155 | 3.2 | 8.0 | 0.00 | 0.00 | 0.00 | 32 | 1003.5 |
| 20260505014650 | 20 | 136 | 3.2 | 6.4 | 0.00 | 0.00 | 0.00 | 30 | 1003.5 |
| 20260505013619 | 20 | 132 | 4.8 | 6.4 | 0.00 | 0.00 | 0.00 | 30 | 1003.5 |
| 20260505012613 | 20 | 156 | 3.2 | 4.8 | 0.00 | 0.00 | 0.00 | 30 | 1003.6 |
| 20260505011621 | 20 | 153 | 1.6 | 8.0 | 0.00 | 0.00 | 0.00 | 30 | 1003.5 |
| 20260505010628 | 20 | 180 | 3.2 | 6.4 | 0.00 | 0.00 | 0.00 | 34 | 1003.7 |
| 20260505005620 | 20 | 237 | 0.0 | 1.6 | 0.00 | 0.00 | 0.00 | 32 | 1003.8 |
| 20260505004613 | 20 | 237 | 3.2 | 11.3 | 0.00 | 0.00 | 0.00 | 36 | 1004.1 |
| 20260505003640 | 21 | 327 | 4.8 | 12.9 | 0.00 | 0.00 | 0.00 | 28 | 1004.1 |
| 20260505002648 | 21 | 284 | 3.2 | 16.1 | 0.00 | 0.00 | 0.00 | 29 | 1004.3 |
| 20260505001616 | 22 | 338 | 6.4 | 16.1 | 0.00 | 0.00 | 0.00 | 27 | 1004.3 |
| 20260505000625 | 22 | 349 | 8.0 | 14.5 | 0.00 | 0.00 | 0.00 | 29 | 1004.3 |
| 20260504235619 | 22 | 46 | 9.7 | 19.3 | 0.00 | 0.00 | 0.00 | 27 | 1004.3 |
| 20260504234630 | 22 | 26 | 9.7 | 20.9 | 0.00 | 0.00 | 0.00 | 27 | 1004.3 |
| 20260504233620 | 22 | 326 | 12.9 | 22.5 | 0.00 | 0.00 | 0.00 | 28 | 1004.2 |
| 20260504232647 | 22 | 348 | 9.7 | 22.5 | 0.00 | 0.00 | 0.00 | 31 | 1004.2 |
| 20260504231617 | 22 | 314 | 9.7 | 24.1 | 0.00 | 0.00 | 0.00 | 32 | 1004.1 |
| 20260504230631 | 24 | 38 | 9.7 | 25.7 | 0.00 | 0.00 | 0.00 | 27 | 1004.2 |
| 20260504225629 | 24 | 190 | 4.8 | 14.5 | 0.00 | 0.00 | 0.00 | 26 | 1003.9 |
| 20260504224617 | 24 | 288 | 6.4 | 12.9 | 0.00 | 0.00 | 0.00 | 27 | 1004.0 |
| 20260504223623 | 24 | 237 | 8.0 | 17.7 | 0.00 | 0.00 | 0.00 | 26 | 1003.9 |
| 20260504222613 | 24 | 250 | 4.8 | 12.9 | 0.00 | 0.00 | 0.00 | 25 | 1003.8 |
| 20260504221641 | 24 | 262 | 6.4 | 11.3 | 0.00 | 0.00 | 0.00 | 25 | 1003.9 |
| 20260504220629 | 24 | 259 | 4.8 | 9.7 | 0.00 | 0.00 | 0.00 | 25 | 1004.0 |
| 20260504215629 | 25 | 337 | 6.4 | 12.9 | 0.00 | 0.00 | 0.00 | 23 | 1004.1 |
| 20260504214622 | 24 | 333 | 1.6 | 4.8 | 0.00 | 0.00 | 0.00 | 25 | 1004.4 |
| 20260504213649 | 24 | 85 | 3.2 | 11.3 | 0.00 | 0.00 | 0.00 | 24 | 1004.4 |
| 20260504212618 | 24 | 329 | 1.6 | 9.7 | 0.00 | 0.00 | 0.00 | 24 | 1004.7 |
| 20260504211648 | 24 | 355 | 6.4 | 14.5 | 0.00 | 0.00 | 0.00 | 26 | 1004.9 |
| 20260504210622 | 23 | 36 | 6.4 | 12.9 | 0.00 | 0.00 | 0.00 | 24 | 1004.9 |
| 20260504205622 | 24 | 57 | 6.4 | 12.9 | 0.00 | 0.00 | 0.00 | 26 | 1005.1 |
| 20260504204652 | 23 | 44 | 4.8 | 14.5 | 0.00 | 0.00 | 0.00 | 27 | 1005.2 |
| 20260504203621 | 24 | 319 | 4.8 | 12.9 | 0.00 | 0.00 | 0.00 | 28 | 1005.4 |
| 20260504202615 | 24 | 38 | 4.8 | 8.0 | 0.00 | 0.00 | 0.00 | 28 | 1005.4 |
| 20260504201622 | 23 | 79 | 4.8 | 12.9 | 0.00 | 0.00 | 0.00 | 26 | 1005.6 |
| 20260504200630 | 23 | 334 | 3.2 | 8.0 | 0.00 | 0.00 | 0.00 | 29 | 1005.7 |
| 20260504195632 | 23 | 285 | 4.8 | 8.0 | 0.00 | 0.00 | 0.00 | 31 | 1005.8 |
| 20260504194624 | 23 | 45 | 6.4 | 12.9 | 0.00 | 0.00 | 0.00 | 29 | 1005.9 |
| 20260504193613 | 23 | 296 | 4.8 | 16.1 | 0.00 | 0.00 | 0.00 | 31 | 1006.1 |
| 20260504192622 | 22 | 279 | 1.6 | 6.4 | 0.00 | 0.00 | 0.00 | 30 | 1006.2 |
| 20260504191630 | 22 | 346 | 4.8 | 12.9 | 0.00 | 0.00 | 0.00 | 31 | 1006.3 |
| 20260504190622 | 22 | 259 | 4.8 | 9.7 | 0.00 | 0.00 | 0.00 | 30 | 1006.5 |
| 20260504185621 | 22 | 327 | 3.2 | 9.7 | 0.00 | 0.00 | 0.00 | 32 | 1006.7 |
| 20260504184629 | 22 | 49 | 4.8 | 6.4 | 0.00 | 0.00 | 0.00 | 29 | 1006.8 |
| 20260504183636 | 22 | 38 | 4.8 | 9.7 | 0.00 | 0.00 | 0.00 | 30 | 1007.0 |
| 20260504182626 | 21 | 209 | 1.6 | 6.4 | 0.00 | 0.00 | 0.00 | 31 | 1007.1 |
| 20260504181613 | 21 | 350 | 3.2 | 6.4 | 0.00 | 0.00 | 0.00 | 32 | 1007.3 |
| 20260504180612 | 20 | 136 | 1.6 | 8.0 | 0.00 | 0.00 | 0.00 | 34 | 1007.5 |
| 20260504175651 | 20 | 57 | 1.6 | 6.4 | 0.00 | 0.00 | 0.00 | 34 | 1007.6 |
| 20260504174620 | 19 | 42 | 1.6 | 8.0 | 0.00 | 0.00 | 0.00 | 36 | 1007.8 |
| 20260504173614 | 18 | 51 | 4.8 | 9.7 | 0.00 | 0.00 | 0.00 | 37 | 1007.9 |
| 20260504172625 | 18 | 32 | 1.6 | 8.0 | 0.00 | 0.00 | 0.00 | 40 | 1007.9 |
| 20260504171636 | 18 | 17 | 3.2 | 9.7 | 0.00 | 0.00 | 0.00 | 41 | 1007.9 |
| 20260504170625 | 17 | 27 | 0.0 | 9.7 | 0.00 | 0.00 | 0.00 | 41 | 1008.0 |